Main page
METAR-TAF:

METAR-TAF

Airports :

Ula, Norway

Oil platform

latitude: 59-06-39N, longitude: 2-50-45E, elevation: 0 m

Current weather observation

The report was made 21 minutes ago, at 19:50 UTC
Wind 20 kt from the Southwest
Temperature 8°C
Humidity 76%
Pressure 1024 hPa
Visibility 10 km or more

METAR: ENLA 181950Z AUTO 23020KT 9999NDV FEW053/// BKN059/// BKN096/// 08/04 Q1024 W///S4

Time: 21:11 (20:11 UTC)


TAF: missing

Weather observations and forecasts of more than 4000 airports (METAR and TAF reports).

The available stations are represented by yellow and red dots on the map.

Hover mouse over dot to see the name of the station.

Then click to see weather observations and forecasts.

To change the map : click on the green buttons with a black cross to zoom in, on the green button with a dash to zoom out, or on the green arrows for adjacent maps.


METAR-TAF: